| time (UTC) | temp C | wind direction | speed KPH | gust KPH | rain 1hr cm | rain 24hr cm | rain mn cm | humidity % | barometer mb |
| 20260906141515 | 16 | 295 | 20.9 | 38.6 | 0.00 | 0.03 | 0.00 | 71 | 1022.4 |
| 20260906140021 | 16 | 290 | 24.1 | 35.4 | 0.00 | 0.03 | 0.00 | 69 | 1022.4 |
| 20260906134515 | 16 | 304 | 22.5 | 32.2 | 0.00 | 0.03 | 0.00 | 71 | 1022.4 |
| 20260906133022 | 16 | 290 | 27.4 | 33.8 | 0.00 | 0.03 | 0.00 | 70 | 1022.4 |
| 20260906131517 | 16 | 295 | 24.1 | 41.8 | 0.00 | 0.03 | 0.00 | 71 | 1022.4 |
| 20260906130008 | 16 | 286 | 22.5 | 33.8 | 0.00 | 0.03 | 0.00 | 73 | 1022.3 |
| 20260906124505 | 16 | 288 | 30.6 | 37.0 | 0.00 | 0.03 | 0.00 | 72 | 1022.2 |
| 20260906123012 | 16 | 302 | 27.4 | 38.6 | 0.00 | 0.03 | 0.00 | 75 | 1022.1 |
| 20260906121502 | 16 | 275 | 33.8 | 40.2 | 0.00 | 0.03 | 0.00 | 74 | 1022.0 |
| 20260906114559 | 16 | 295 | 27.4 | 40.2 | 0.00 | 0.03 | 0.00 | 76 | 1021.9 |
| 20260906113101 | 16 | 289 | 30.6 | 41.8 | 0.00 | 0.03 | 0.00 | 74 | 1022.1 |
| 20260906111604 | 15 | 293 | 29.0 | 40.2 | 0.00 | 0.03 | 0.00 | 77 | 1021.8 |
| 20260906104554 | 15 | 302 | 30.6 | 41.8 | 0.00 | 0.03 | 0.00 | 76 | 1021.5 |
| 20260906103104 | 15 | 293 | 33.8 | 43.5 | 0.00 | 0.03 | 0.00 | 78 | 1021.3 |
| 20260906101554 | 15 | 306 | 37.0 | 46.7 | 0.00 | 0.03 | 0.00 | 77 | 1021.2 |
| 20260906100051 | 15 | 314 | 33.8 | 43.5 | 0.00 | 0.03 | 0.00 | 78 | 1021.2 |
| 20260906094547 | 15 | 297 | 33.8 | 40.2 | 0.00 | 0.05 | 0.00 | 79 | 1020.8 |
| 20260906093050 | 15 | 319 | 32.2 | 41.8 | 0.00 | 0.05 | 0.00 | 79 | 1020.8 |
| 20260906091543 | 15 | 316 | 33.8 | 41.8 | 0.00 | 0.05 | 0.00 | 79 | 1020.6 |
| 20260906090057 | 15 | 300 | 33.8 | 41.8 | 0.00 | 0.05 | 0.00 | 80 | 1020.4 |
| 20260906084539 | 15 | 309 | 33.8 | 45.1 | 0.00 | 0.05 | 0.00 | 80 | 1020.4 |
| 20260906083039 | 15 | 295 | 37.0 | 48.3 | 0.00 | 0.05 | 0.00 | 81 | 1020.1 |
| 20260906081533 | 15 | 297 | 35.4 | 48.3 | 0.00 | 0.05 | 0.00 | 81 | 1019.9 |
| 20260906080031 | 15 | 295 | 32.2 | 45.1 | 0.00 | 0.05 | 0.00 | 81 | 1019.9 |
| 20260906074528 | 15 | 291 | 33.8 | 43.5 | 0.00 | 0.05 | 0.00 | 81 | 1019.7 |
| 20260906073026 | 15 | 302 | 30.6 | 40.2 | 0.00 | 0.05 | 0.00 | 83 | 1019.4 |
| 20260906071524 | 15 | 303 | 35.4 | 41.8 | 0.00 | 0.05 | 0.00 | 82 | 1019.2 |
| 20260906070025 | 15 | 293 | 35.4 | 45.1 | 0.00 | 0.05 | 0.00 | 82 | 1019.2 |
| 20260906064518 | 15 | 309 | 33.8 | 51.5 | 0.00 | 0.05 | 0.00 | 81 | 1019.0 |
| 20260906063028 | 15 | 299 | 41.8 | 49.9 | 0.00 | 0.05 | 0.00 | 80 | 1018.5 |
| 20260906061515 | 15 | 289 | 33.8 | 48.3 | 0.00 | 0.05 | 0.00 | 82 | 1018.5 |
| 20260906060014 | 15 | 293 | 38.6 | 48.3 | 0.00 | 0.05 | 0.00 | 81 | 1018.4 |
| 20260906054511 | 15 | 282 | 30.6 | 51.5 | 0.00 | 0.05 | 0.00 | 82 | 1018.2 |
| 20260906053009 | 15 | 293 | 38.6 | 53.1 | 0.00 | 0.05 | 0.00 | 81 | 1017.9 |
| 20260906051507 | 15 | 298 | 41.8 | 51.5 | 0.00 | 0.05 | 0.00 | 80 | 1017.8 |
| 20260906050006 | 15 | 295 | 40.2 | 51.5 | 0.00 | 0.05 | 0.00 | 81 | 1017.6 |
| 20260906044505 | 15 | 316 | 40.2 | 53.1 | 0.00 | 0.05 | 0.00 | 82 | 1017.4 |
| 20260906043004 | 15 | 321 | 43.5 | 51.5 | 0.00 | 0.05 | 0.00 | 81 | 1017.2 |
| 20260906041604 | 15 | 291 | 43.5 | 49.9 | 0.00 | 0.05 | 0.00 | 82 | 1016.9 |
| 20260906040058 | 15 | 314 | 38.6 | 49.9 | 0.00 | 0.05 | 0.00 | 82 | 1016.8 |
| 20260906034620 | 15 | 293 | 41.8 | 51.5 | 0.00 | 0.05 | 0.00 | 82 | 1016.3 |
| 20260906033056 | 15 | 310 | 41.8 | 51.5 | 0.00 | 0.05 | 0.00 | 82 | 1016.2 |
| 20260906031554 | 15 | 295 | 40.2 | 53.1 | 0.00 | 0.05 | 0.00 | 82 | 1016.2 |
| 20260906030053 | 15 | 309 | 43.5 | 53.1 | 0.00 | 0.05 | 0.00 | 82 | 1016.1 |
| 20260906024551 | 15 | 307 | 45.1 | 57.9 | 0.00 | 0.05 | 0.00 | 81 | 1015.6 |
| 20260906023050 | 15 | 307 | 46.7 | 61.2 | 0.00 | 0.05 | 0.00 | 81 | 1015.6 |
| 20260906021547 | 15 | 316 | 46.7 | 57.9 | 0.00 | 0.05 | 0.00 | 81 | 1015.4 |
| 20260906020053 | 15 | 298 | 45.1 | 56.3 | 0.00 | 0.05 | 0.00 | 82 | 1015.4 |
| 20260906014545 | 15 | 302 | 49.9 | 61.2 | 0.00 | 0.05 | 0.00 | 82 | 1015.2 |
| 20260906013100 | 15 | 302 | 43.5 | 56.3 | 0.00 | 0.05 | 0.00 | 82 | 1015.1 |
| 20260906011546 | 15 | 302 | 49.9 | 59.5 | 0.00 | 0.05 | 0.00 | 82 | 1014.9 |
| 20260906010039 | 15 | 298 | 46.7 | 59.5 | 0.00 | 0.05 | 0.00 | 82 | 1014.6 |
| 20260906004538 | 15 | 301 | 41.8 | 57.9 | 0.00 | 0.05 | 0.00 | 83 | 1014.5 |
| 20260906003037 | 15 | 299 | 49.9 | 62.8 | 0.00 | 0.05 | 0.00 | 81 | 1014.4 |
| 20260906001532 | 15 | 291 | 49.9 | 59.5 | 0.00 | 0.05 | 0.00 | 81 | 1014.1 |
| 20260906000029 | 15 | 309 | 49.9 | 62.8 | 0.00 | 0.05 | 0.00 | 81 | 1014.0 |
| 20260905234527 | 15 | 309 | 48.3 | 57.9 | 0.00 | 0.05 | 0.00 | 81 | 1013.6 |
| 20260905233026 | 15 | 324 | 45.1 | 59.5 | 0.00 | 0.05 | 0.00 | 82 | 1013.5 |
| 20260905231527 | 15 | 297 | 46.7 | 59.5 | 0.00 | 0.05 | 0.00 | 82 | 1013.2 |
| 20260905230125 | 15 | 300 | 46.7 | 59.5 | 0.00 | 0.05 | 0.00 | 82 | 1013.2 |
| 20260905224521 | 15 | 304 | 49.9 | 59.5 | 0.00 | 0.05 | 0.00 | 80 | 1013.0 |
| 20260905223020 | 15 | 311 | 49.9 | 64.4 | 0.00 | 0.05 | 0.00 | 81 | 1012.7 |
| 20260905221517 | 15 | 303 | 43.5 | 57.9 | 0.00 | 0.05 | 0.00 | 83 | 1012.6 |
| 20260905220014 | 15 | 291 | 48.3 | 61.2 | 0.00 | 0.05 | 0.00 | 81 | 1012.3 |
| 20260905214515 | 15 | 285 | 48.3 | 61.2 | 0.00 | 0.05 | 0.05 | 81 | 1012.1 |
| 20260905213014 | 15 | 287 | 49.9 | 62.8 | 0.00 | 0.05 | 0.05 | 80 | 1011.8 |
| 20260905211512 | 15 | 274 | 46.7 | 59.5 | 0.00 | 0.05 | 0.05 | 81 | 1011.6 |
| 20260905210010 | 15 | 288 | 54.7 | 66.0 | 0.03 | 0.05 | 0.05 | 80 | 1011.4 |
| 20260905204508 | 15 | 288 | 49.9 | 66.0 | 0.03 | 0.05 | 0.05 | 80 | 1011.0 |
| 20260905203006 | 15 | 329 | 53.1 | 66.0 | 0.03 | 0.05 | 0.05 | 79 | 1010.8 |
| 20260905201506 | 15 | 330 | 41.8 | 67.6 | 0.03 | 0.05 | 0.05 | 79 | 1011.0 |
| 20260905200004 | 15 | 289 | 56.3 | 69.2 | 0.00 | 0.05 | 0.03 | 79 | 1010.5 |
| 20260905194502 | 15 | 288 | 57.9 | 77.2 | 0.00 | 0.13 | 0.03 | 78 | 1010.4 |
| 20260905193059 | 15 | 269 | 46.7 | 59.5 | 0.00 | 0.13 | 0.03 | 79 | 1010.1 |
| 20260905191557 | 15 | 284 | 40.2 | 53.1 | 0.00 | 0.13 | 0.03 | 78 | 1009.9 |
| 20260905190056 | 15 | 275 | 33.8 | 56.3 | 0.00 | 0.13 | 0.03 | 77 | 1009.7 |
| 20260905184600 | 15 | 279 | 30.6 | 49.9 | 0.00 | 0.25 | 0.03 | 76 | 1009.6 |
| 20260905183055 | 15 | 293 | 43.5 | 62.8 | 0.00 | 0.25 | 0.03 | 76 | 1009.6 |
| 20260905181553 | 15 | 276 | 45.1 | 59.5 | 0.00 | 0.25 | 0.03 | 75 | 1009.4 |
| 20260905180051 | 15 | 271 | 38.6 | 56.3 | 0.00 | 0.25 | 0.03 | 75 | 1009.2 |
| 20260905174553 | 16 | 286 | 45.1 | 62.8 | 0.00 | 0.25 | 0.03 | 72 | 1009.1 |
| 20260905173049 | 16 | 281 | 35.4 | 56.3 | 0.00 | 0.25 | 0.03 | 72 | 1008.9 |
| 20260905171602 | 16 | 316 | 33.8 | 49.9 | 0.00 | 0.25 | 0.03 | 72 | 1008.9 |
| 20260905170052 | 16 | 259 | 45.1 | 61.2 | 0.00 | 0.25 | 0.03 | 70 | 1008.8 |
| 20260905164550 | 16 | 278 | 29.0 | 49.9 | 0.00 | 0.25 | 0.03 | 72 | 1008.7 |
| 20260905163053 | 16 | 304 | 32.2 | 45.1 | 0.00 | 0.25 | 0.03 | 70 | 1008.6 |
| 20260905161544 | 16 | 293 | 24.1 | 41.8 | 0.00 | 0.25 | 0.03 | 73 | 1008.4 |
| 20260905160043 | 16 | 264 | 27.4 | 45.1 | 0.00 | 0.25 | 0.03 | 74 | 1008.4 |
| 20260905154555 | 16 | 293 | 33.8 | 54.7 | 0.00 | 0.25 | 0.03 | 74 | 1008.2 |
| 20260905153041 | 16 | 289 | 24.1 | 41.8 | 0.00 | 0.25 | 0.03 | 74 | 1008.1 |
| 20260905151539 | 16 | 250 | 30.6 | 48.3 | 0.00 | 0.25 | 0.03 | 71 | 1007.9 |
| 20260905150044 | 16 | 279 | 25.7 | 48.3 | 0.00 | 0.25 | 0.03 | 74 | 1007.8 |
| 20260905144539 | 16 | 286 | 20.9 | 51.5 | 0.00 | 0.28 | 0.03 | 72 | 1007.7 |
| 20260905143038 | 16 | 243 | 16.1 | 46.7 | 0.00 | 0.28 | 0.03 | 75 | 1007.9 |